Hourly Data Report for October 02, 2017

All times are specified in Local Standard Time (LST). Add 1 hour to adjust for Daylight Saving Time where and when it is observed.

PINAWA
MANITOBA

50°10'38.020" N
96°03'53.000" W
268.00 m
503B1ER
71448
WEA

Download Data

Hourly Data (October 2017)
Hourly Data Report for October 2, 2017
Temp Definition
°C
Dew Point Temp Definition
°C
Rel Hum Definition
%
Wind Dir Definition
10's deg

Wind Spd Definition
km/h
Visibility Definition
km
Stn Press Definition
kPa
Hmdx Definition


Wind Chill Definition


Weather Definition


TIME
00:00 14.1 12.6 91 15 11   97.25     LegendNANA
01:00 14.4 12.9 91 14 7   97.20     LegendNANA
02:00 14.8 13.1 90 14 10   97.19     LegendNANA
03:00 15.0 13.1 88 15 10   97.17     LegendNANA
04:00 14.9 12.6 86 14 12   97.13     LegendNANA
05:00 14.5 12.3 87 14 13   97.13     LegendNANA
06:00 14.2 11.9 86 14 12   97.16     LegendNANA
07:00 14.1 11.7 86 14 11   97.19     LegendNANA
08:00 14.1 11.7 85 14 13   97.22     LegendNANA
09:00 13.8 11.9 88 17 10   97.29     LegendNANA
10:00 14.0 11.0 82 18 8   97.33     LegendNANA
11:00 14.3 10.8 79 18 7   97.37     LegendNANA
12:00 13.8 10.1 78 20 9   97.45     LegendNANA
13:00 13.9 9.4 74 21 8   97.50     LegendNANA
14:00 14.6 8.4 67 22 8   97.55     LegendNANA
15:00 14.9 7.7 62 22 10   97.61     LegendNANA
16:00 15.2 7.5 60 21 7   97.65     LegendNANA
17:00 14.6 7.3 62 19 7   97.72     LegendNANA
18:00 13.7 7.5 66 17 5   97.76     LegendNANA
19:00 12.4 7.9 74 16 5   97.88     LegendNANA
20:00 11.0 7.6 79 17 5   97.97     LegendNANA
21:00 10.0 7.4 84 16 5   98.06     LegendNANA
22:00 9.0 6.7 85 17 4   98.07     LegendNANA
23:00 5.9 4.3 89 15 3   98.07     LegendNANA

Notes on Data Quality.

Legend

  • E = Estimated
  • M = Missing
  • NA = Not Available
  • ‡ = Partner data that is not subject to review by the National Climate Archives
Date modified: